SIA317 EGLL-WSSS

Flight info

Callsign SIA317
Flight time N/A
Altitude 35000
Route DET L6 DVR L9 KONAN UL607 FERDI DCT MATUG DCT GUBAX DCT KOMIB L984 SULUS Z650 VEMUT DCT DITIS DCT ERGOM DCT BUDOP DCT UDROS UM859 KARDE UL851 TBN UR317 DELEL/N0486F370 UR317 REBLO M11 LUSAL N199 BAKUV N701 LARGI B701 KRS A240 INRAK B449 DOLOS B475 RUBAD A846 RANAH L750 ZB G202 RK P628 IBANI/N0495F390 L510 GIVAL P628 VPL Y503 RINBA Y507 MAKNA Y511 TOPOR A464 ARAMA DCT TEBUN TEBUN1A
Aircraft A388/J-SADE2E3FGHIJ3J4J5M1RWXY/LB1D1

Departure

Time 2026-04-30 11:23
Airport London Heathrow Airport (EGLL)

Arrival

Time N/A
Airport Singapore Changi Airport (WSSS)
Time Latitude Longitude Altitude Speed Heading
2026-04-30 06:14 51.46937 -0.44427 96 ft 0 kts 90°
2026-04-30 11:02 51.46937 -0.44432 96 ft 3 kts 90°
2026-04-30 11:02 51.46939 -0.44473 95 ft 4 kts 103°
2026-04-30 11:02 51.46948 -0.44514 93 ft 4 kts 121°
2026-04-30 11:03 51.46965 -0.44546 94 ft 4 kts 145°
2026-04-30 11:03 51.46988 -0.44565 94 ft 4 kts 166°
2026-04-30 11:03 51.47015 -0.44571 95 ft 4 kts 181°
2026-04-30 11:04 51.47059 -0.44565 94 ft 0 kts 180°
2026-04-30 11:08 51.47050 -0.44565 94 ft 7 kts 180°
2026-04-30 11:08 51.46975 -0.44561 94 ft 12 kts 178°
2026-04-30 11:09 51.46914 -0.44559 95 ft 1 kts 178°
2026-04-30 11:09 51.46895 -0.44558 92 ft 4 kts 179°
2026-04-30 11:09 51.46857 -0.44557 92 ft 3 kts 179°
2026-04-30 11:10 51.46845 -0.44557 92 ft 4 kts 179°
2026-04-30 11:10 51.46803 -0.44556 93 ft 7 kts 184°
2026-04-30 11:11 51.46762 -0.44599 97 ft 8 kts 233°
2026-04-30 11:11 51.46749 -0.44689 95 ft 10 kts 270°
2026-04-30 11:11 51.46749 -0.44812 93 ft 12 kts 271°
2026-04-30 11:11 51.46751 -0.44962 92 ft 14 kts 270°
2026-04-30 11:12 51.46751 -0.45114 93 ft 6 kts 269°
2026-04-30 11:12 51.46751 -0.45188 92 ft 8 kts 270°
2026-04-30 11:12 51.46750 -0.45297 95 ft 11 kts 269°
2026-04-30 11:12 51.46750 -0.45436 92 ft 14 kts 269°
2026-04-30 11:13 51.46749 -0.45598 95 ft 15 kts 269°
2026-04-30 11:13 51.46748 -0.45780 95 ft 17 kts 269°
2026-04-30 11:13 51.46747 -0.45973 95 ft 18 kts 269°
2026-04-30 11:13 51.46746 -0.46180 95 ft 19 kts 269°
2026-04-30 11:14 51.46746 -0.46396 95 ft 20 kts 271°
2026-04-30 11:14 51.46748 -0.46590 95 ft 16 kts 272°
2026-04-30 11:14 51.46749 -0.46618 95 ft 1 kts 274°
2026-04-30 11:14 51.46749 -0.46654 95 ft 5 kts 269°
2026-04-30 11:15 51.46748 -0.46733 95 ft 9 kts 269°
2026-04-30 11:15 51.46747 -0.46855 95 ft 12 kts 269°
2026-04-30 11:15 51.46746 -0.47006 95 ft 15 kts 269°
2026-04-30 11:15 51.46745 -0.47178 95 ft 16 kts 269°
2026-04-30 11:16 51.46744 -0.47331 92 ft 9 kts 269°
2026-04-30 11:16 51.46744 -0.47403 94 ft 11 kts 270°
2026-04-30 11:16 51.46744 -0.47533 93 ft 12 kts 270°
2026-04-30 11:16 51.46743 -0.47611 92 ft 2 kts 270°
2026-04-30 11:17 51.46743 -0.47652 93 ft 6 kts 269°
2026-04-30 11:17 51.46743 -0.47669 92 ft 0 kts 269°
2026-04-30 11:17 51.46743 -0.47681 92 ft 3 kts 270°
2026-04-30 11:17 51.46743 -0.47686 92 ft 0 kts 270°
2026-04-30 11:18 51.46743 -0.47703 92 ft 4 kts 270°
2026-04-30 11:18 51.46743 -0.47710 93 ft 0 kts 269°
2026-04-30 11:19 51.46743 -0.47714 93 ft 1 kts 270°
2026-04-30 11:19 51.46743 -0.47784 92 ft 12 kts 270°
2026-04-30 11:19 51.46743 -0.47961 92 ft 19 kts 270°
2026-04-30 11:19 51.46743 -0.48169 93 ft 20 kts 270°
2026-04-30 11:20 51.46743 -0.48369 92 ft 17 kts 270°
2026-04-30 11:20 51.46741 -0.48522 93 ft 6 kts 269°
2026-04-30 11:20 51.46740 -0.48631 92 ft 11 kts 269°
2026-04-30 11:20 51.46740 -0.48649 92 ft 4 kts 269°
2026-04-30 11:21 51.46723 -0.48719 96 ft 10 kts 216°
2026-04-30 11:21 51.46638 -0.48755 95 ft 17 kts 189°
2026-04-30 11:21 51.46529 -0.48774 93 ft 6 kts 165°
2026-04-30 11:21 51.46500 -0.48749 96 ft 4 kts 133°
2026-04-30 11:22 51.46480 -0.48676 95 ft 17 kts 99°
2026-04-30 11:22 51.46481 -0.48545 95 ft 2 kts 88°
2026-04-30 11:22 51.46481 -0.48504 96 ft 6 kts 91°
2026-04-30 11:22 51.46478 -0.48052 95 ft 79 kts 90°
2026-04-30 11:23 51.46482 -0.46797 96 ft 142 kts 90°
2026-04-30 11:23 51.46486 -0.44974 118 ft 178 kts 87°
2026-04-30 11:23 51.46457 -0.40893 897 ft 190 kts 89°
2026-04-30 11:24 51.46220 -0.38758 1288 ft 195 kts 107°
2026-04-30 11:24 51.45594 -0.36853 1865 ft 192 kts 123°
2026-04-30 11:24 51.44875 -0.34996 2471 ft 203 kts 122°
2026-04-30 11:25 51.43492 -0.30456 3383 ft 253 kts 114°
2026-04-30 11:25 51.42845 -0.27712 3771 ft 273 kts 106°
2026-04-30 11:25 51.42019 -0.21386 4536 ft 306 kts 103°
2026-04-30 11:26 51.41068 -0.14398 5311 ft 335 kts 103°
2026-04-30 11:26 51.40551 -0.10692 5684 ft 347 kts 103°
2026-04-30 11:26 51.40012 -0.06873 6235 ft 354 kts 103°
2026-04-30 11:27 51.39467 -0.03027 6859 ft 357 kts 103°
2026-04-30 11:27 51.38921 0.00820 7526 ft 360 kts 104°
2026-04-30 11:27 51.38379 0.04671 8840 ft 340 kts 104°
2026-04-30 11:27 51.37863 0.08307 9894 ft 333 kts 104°
2026-04-30 11:28 51.36816 0.15529 11004 ft 340 kts 104°
2026-04-30 11:28 51.36275 0.19239 11493 ft 346 kts 105°
2026-04-30 11:28 51.35727 0.23017 11988 ft 351 kts 104°
2026-04-30 11:29 51.35174 0.26863 12500 ft 356 kts 104°
2026-04-30 11:29 51.34617 0.30741 13010 ft 361 kts 104°
2026-04-30 11:29 51.33477 0.38650 14083 ft 369 kts 104°
2026-04-30 11:30 51.32304 0.46730 15035 ft 376 kts 104°
2026-04-30 11:30 51.31706 0.50828 15519 ft 379 kts 105°
2026-04-30 11:30 51.31104 0.54937 16013 ft 382 kts 105°
2026-04-30 11:31 51.30495 0.59090 16506 ft 384 kts 105°
2026-04-30 11:31 51.29774 0.63209 16964 ft 387 kts 108°
2026-04-30 11:31 51.29010 0.67361 17412 ft 392 kts 108°
2026-04-30 11:31 51.28239 0.71568 17855 ft 397 kts 108°
2026-04-30 11:32 51.27457 0.75838 18305 ft 402 kts 108°
2026-04-30 11:32 51.26669 0.80135 18728 ft 407 kts 108°
2026-04-30 11:32 51.25866 0.84501 19127 ft 411 kts 108°
2026-04-30 11:33 51.24239 0.93308 19919 ft 421 kts 108°
2026-04-30 11:33 51.23401 0.97824 20326 ft 426 kts 108°
2026-04-30 11:33 51.22554 1.02383 20746 ft 430 kts 108°
2026-04-30 11:33 51.21698 1.06982 21183 ft 434 kts 108°
2026-04-30 11:34 51.20833 1.11618 21624 ft 438 kts 108°
2026-04-30 11:34 51.19958 1.16289 22113 ft 441 kts 108°
2026-04-30 11:34 51.19076 1.20997 22588 ft 444 kts 108°
2026-04-30 11:34 51.18188 1.25718 23087 ft 446 kts 108°
2026-04-30 11:35 51.17302 1.30411 23554 ft 449 kts 108°
2026-04-30 11:35 51.16489 1.35218 24000 ft 452 kts 103°
2026-04-30 11:35 51.16030 1.40184 24420 ft 455 kts 96°
2026-04-30 11:35 51.15811 1.45237 24826 ft 458 kts 95°
2026-04-30 11:36 51.15579 1.50314 25233 ft 460 kts 96°
2026-04-30 11:36 51.15336 1.55397 25640 ft 462 kts 96°
2026-04-30 11:36 51.15086 1.60505 26054 ft 462 kts 96°
2026-04-30 11:36 51.14834 1.65606 26474 ft 463 kts 96°
2026-04-30 11:37 51.14579 1.70716 26902 ft 463 kts 96°
2026-04-30 11:37 51.14322 1.75835 27330 ft 464 kts 96°
2026-04-30 11:37 51.14062 1.80964 27771 ft 465 kts 96°
2026-04-30 11:37 51.13800 1.86098 28223 ft 465 kts 96°
2026-04-30 11:38 51.13536 1.91223 28675 ft 465 kts 96°
2026-04-30 11:38 51.13269 1.96357 29135 ft 465 kts 96°
2026-04-30 11:38 51.13001 2.01489 29605 ft 465 kts 96°
2026-04-30 11:38 51.12730 2.06608 30297 ft 458 kts 96°
2026-04-30 11:39 51.12472 2.11484 31469 ft 439 kts 96°
2026-04-30 11:39 51.12214 2.16312 32419 ft 426 kts 96°
2026-04-30 11:39 51.11962 2.20974 33041 ft 421 kts 97°
2026-04-30 11:39 51.11712 2.25541 33499 ft 418 kts 97°
2026-04-30 11:40 51.11455 2.30197 33965 ft 415 kts 97°
2026-04-30 11:40 51.11205 2.34692 34388 ft 412 kts 97°
2026-04-30 11:40 51.10951 2.39246 34688 ft 412 kts 97°
2026-04-30 11:40 51.10696 2.43780 34979 ft 411 kts 97°
2026-04-30 11:41 51.10174 2.52966 35030 ft 424 kts 97°
2026-04-30 11:41 51.09599 2.62463 35028 ft 437 kts 99°
2026-04-30 11:42 51.08249 2.72003 35029 ft 449 kts 107°
2026-04-30 11:42 51.06470 2.81705 35030 ft 458 kts 107°
2026-04-30 11:43 51.04728 2.91322 35031 ft 456 kts 107°
2026-04-30 11:43 51.02961 3.00997 35032 ft 456 kts 107°
2026-04-30 11:44 51.01182 3.10671 35031 ft 456 kts 107°
2026-04-30 11:44 50.99392 3.20352 35035 ft 454 kts 107°
2026-04-30 11:45 50.97613 3.29927 35039 ft 452 kts 107°
2026-04-30 11:45 50.95796 3.39648 35041 ft 467 kts 107°
2026-04-30 11:46 50.93929 3.49592 35038 ft 467 kts 107°
2026-04-30 11:46 50.92060 3.59494 35040 ft 469 kts 107°
2026-04-30 11:47 50.90233 3.69416 35047 ft 470 kts 105°
2026-04-30 11:47 50.88586 3.79368 35049 ft 470 kts 105°
2026-04-30 11:48 50.86914 3.89373 35055 ft 470 kts 105°
2026-04-30 11:48 50.85210 3.99370 35061 ft 471 kts 105°
2026-04-30 11:49 50.83491 4.09368 35067 ft 471 kts 105°
2026-04-30 11:49 50.81763 4.19360 35071 ft 471 kts 105°
2026-04-30 11:50 50.80024 4.29357 35078 ft 471 kts 105°
2026-04-30 11:50 50.78276 4.39348 35077 ft 471 kts 105°
2026-04-30 11:51 50.76523 4.49318 35076 ft 471 kts 105°
2026-04-30 11:51 50.74760 4.59283 35075 ft 471 kts 105°
2026-04-30 11:52 50.72992 4.69224 35074 ft 470 kts 105°
2026-04-30 11:52 50.71222 4.79122 35069 ft 471 kts 105°
2026-04-30 11:53 50.69435 4.89059 35070 ft 471 kts 105°
2026-04-30 11:53 50.67638 4.98998 35070 ft 471 kts 105°
2026-04-30 11:54 50.65831 5.08939 35075 ft 471 kts 105°
2026-04-30 11:54 50.64016 5.18865 35078 ft 471 kts 105°
2026-04-30 11:55 50.62203 5.28729 35083 ft 471 kts 105°
2026-04-30 11:55 50.60372 5.38636 35080 ft 471 kts 105°
2026-04-30 11:56 50.58534 5.48536 35078 ft 471 kts 105°
2026-04-30 11:56 50.56689 5.58412 35085 ft 471 kts 105°
2026-04-30 11:57 50.54836 5.68287 35081 ft 470 kts 105°
2026-04-30 11:57 50.52976 5.78142 35076 ft 470 kts 105°
2026-04-30 11:58 50.51101 5.88018 35079 ft 470 kts 105°
2026-04-30 11:58 50.49236 5.97796 35081 ft 471 kts 105°
2026-04-30 11:59 50.47350 6.07636 35089 ft 471 kts 105°
2026-04-30 11:59 50.45453 6.17481 35088 ft 471 kts 105°
2026-04-30 12:00 50.43548 6.27312 35081 ft 471 kts 105°
2026-04-30 12:00 50.41738 6.37173 35078 ft 469 kts 100°
2026-04-30 12:01 50.40870 6.47283 35080 ft 469 kts 95°
2026-04-30 12:01 50.40111 6.57419 35085 ft 467 kts 96°
2026-04-30 12:02 50.39332 6.67522 35091 ft 467 kts 96°
2026-04-30 12:02 50.38541 6.77622 35099 ft 467 kts 96°
2026-04-30 12:03 50.37336 6.92782 35112 ft 467 kts 96°
2026-04-30 12:04 50.36523 7.02878 35113 ft 467 kts 96°
2026-04-30 12:04 50.35706 7.12915 35117 ft 467 kts 95°
2026-04-30 12:05 50.34874 7.23015 35120 ft 468 kts 95°
2026-04-30 12:05 50.34034 7.33110 35123 ft 468 kts 95°
2026-04-30 12:06 50.33327 7.41520 35123 ft 469 kts 96°
2026-04-30 12:06 50.32322 7.53353 35132 ft 469 kts 96°
2026-04-30 12:07 50.31599 7.61769 35135 ft 469 kts 96°
2026-04-30 12:07 50.30721 7.71906 35139 ft 470 kts 96°
2026-04-30 12:08 50.29688 7.83685 35139 ft 470 kts 96°
2026-04-30 12:08 50.28938 7.92171 35139 ft 470 kts 96°
2026-04-30 12:09 50.28083 8.02311 35152 ft 470 kts 95°
2026-04-30 12:09 50.27248 8.12382 35157 ft 470 kts 95°
2026-04-30 12:10 50.26447 8.21862 35162 ft 470 kts 95°
2026-04-30 12:10 50.25578 8.31998 35168 ft 471 kts 95°
2026-04-30 12:11 50.24699 8.42134 35172 ft 470 kts 95°
2026-04-30 12:11 50.23810 8.52272 35155 ft 470 kts 95°
2026-04-30 12:12 50.22914 8.62394 35155 ft 471 kts 95°
2026-04-30 12:12 50.22009 8.72518 35153 ft 470 kts 95°
2026-04-30 12:13 50.21093 8.82654 35154 ft 471 kts 95°
2026-04-30 12:13 50.20171 8.92765 35158 ft 471 kts 95°
2026-04-30 12:14 50.19244 9.02819 35154 ft 471 kts 95°
2026-04-30 12:14 50.18302 9.12944 35150 ft 471 kts 95°
2026-04-30 12:15 50.17349 9.23085 35157 ft 472 kts 95°
2026-04-30 12:15 50.16389 9.33202 35169 ft 471 kts 95°
2026-04-30 12:16 50.15421 9.43316 35152 ft 471 kts 95°
2026-04-30 12:16 50.14444 9.53414 35157 ft 471 kts 95°
2026-04-30 12:17 50.12968 9.68506 35165 ft 471 kts 95°
2026-04-30 12:17 50.11970 9.78602 35167 ft 471 kts 95°
2026-04-30 12:18 50.10964 9.88682 35176 ft 471 kts 95°
2026-04-30 12:18 50.09948 9.98770 35180 ft 471 kts 95°
2026-04-30 12:19 50.08923 10.08851 35186 ft 471 kts 95°
2026-04-30 12:19 50.07893 10.18895 35185 ft 470 kts 95°
2026-04-30 12:20 50.07333 10.28968 35187 ft 464 kts 85°
2026-04-30 12:20 50.07412 10.39028 35189 ft 465 kts 86°
2026-04-30 12:21 50.07459 10.49082 35191 ft 464 kts 86°
2026-04-30 12:21 50.07492 10.59133 35187 ft 464 kts 86°
2026-04-30 12:22 50.07364 10.69117 35193 ft 467 kts 91°
2026-04-30 12:22 50.06183 10.79104 35188 ft 473 kts 101°
2026-04-30 12:23 50.04136 10.88878 35183 ft 475 kts 103°
2026-04-30 12:23 50.02077 10.98644 35309 ft 476 kts 103°
2026-04-30 12:24 49.99998 11.08449 35458 ft 478 kts 103°
2026-04-30 12:24 49.97910 11.18220 35617 ft 479 kts 103°
2026-04-30 12:25 49.95805 11.28057 35768 ft 481 kts 103°
2026-04-30 12:25 49.93713 11.37927 35930 ft 482 kts 103°
2026-04-30 12:26 49.91723 11.47809 35642 ft 474 kts 100°
2026-04-30 12:26 49.90848 11.52724 35456 ft 470 kts 100°
2026-04-30 12:26 49.89983 11.57607 35451 ft 472 kts 100°
2026-04-30 12:27 49.88261 11.67456 35462 ft 470 kts 97°
2026-04-30 12:27 49.87306 11.77401 35473 ft 466 kts 92°
2026-04-30 12:28 49.86432 11.87350 35477 ft 465 kts 92°
2026-04-30 12:28 49.85541 11.97280 35483 ft 465 kts 92°
2026-04-30 12:29 49.84646 12.07200 35479 ft 464 kts 92°
2026-04-30 12:29 49.83749 12.17097 35477 ft 463 kts 92°
2026-04-30 12:30 49.82849 12.26909 35469 ft 463 kts 92°
2026-04-30 12:30 49.81942 12.36777 35462 ft 462 kts 92°
2026-04-30 12:31 49.80531 12.46541 35455 ft 470 kts 102°
2026-04-30 12:31 49.77890 12.55890 35455 ft 478 kts 110°
2026-04-30 12:32 49.74867 12.65046 35454 ft 477 kts 110°
2026-04-30 12:32 49.71867 12.74184 35454 ft 476 kts 110°
2026-04-30 12:33 49.68858 12.83304 35448 ft 477 kts 110°
2026-04-30 12:33 49.65857 12.92356 35450 ft 476 kts 110°
2026-04-30 12:34 49.62811 13.01507 35449 ft 476 kts 110°
2026-04-30 12:34 49.59799 13.10525 35458 ft 475 kts 110°
2026-04-30 12:35 49.56762 13.19588 35459 ft 476 kts 110°
2026-04-30 12:35 49.53719 13.28633 35462 ft 476 kts 110°
2026-04-30 12:36 49.50665 13.37682 35458 ft 476 kts 110°
2026-04-30 12:36 49.47597 13.46736 35454 ft 476 kts 110°
2026-04-30 12:37 49.44528 13.55765 35446 ft 477 kts 110°
2026-04-30 12:37 49.41452 13.64781 35444 ft 476 kts 110°
2026-04-30 12:38 49.38383 13.73746 35447 ft 477 kts 110°
2026-04-30 12:38 49.35287 13.82757 35446 ft 477 kts 110°
2026-04-30 12:39 49.32186 13.91749 35446 ft 478 kts 110°
2026-04-30 12:39 49.29069 14.00759 35446 ft 478 kts 110°
2026-04-30 12:40 49.25950 14.09742 35443 ft 478 kts 110°
2026-04-30 12:40 49.22813 14.18746 35460 ft 479 kts 110°
2026-04-30 12:41 49.19685 14.27690 35454 ft 480 kts 111°
2026-04-30 12:41 49.16531 14.36679 35454 ft 480 kts 111°
2026-04-30 12:42 49.13367 14.45668 35451 ft 481 kts 111°
2026-04-30 12:42 49.10187 14.54669 35450 ft 482 kts 111°
2026-04-30 12:43 49.06994 14.63673 35451 ft 483 kts 111°
2026-04-30 12:43 49.03786 14.72690 35447 ft 484 kts 111°
2026-04-30 12:44 49.00570 14.81698 35444 ft 484 kts 111°
2026-04-30 12:44 48.97356 14.90668 35441 ft 485 kts 111°
2026-04-30 12:45 48.94114 14.99686 35439 ft 486 kts 111°
2026-04-30 12:45 48.90858 15.08717 35438 ft 487 kts 112°
2026-04-30 12:46 48.87977 15.17955 35433 ft 482 kts 106°
2026-04-30 12:46 48.85373 15.27344 35434 ft 483 kts 106°
2026-04-30 12:47 48.82747 15.36732 35431 ft 484 kts 107°
2026-04-30 12:47 48.80108 15.46075 35436 ft 485 kts 107°
2026-04-30 12:48 48.77436 15.55482 35432 ft 486 kts 107°
2026-04-30 12:48 48.74749 15.64899 35431 ft 487 kts 107°
2026-04-30 12:49 48.72051 15.74323 35440 ft 489 kts 107°
2026-04-30 12:49 48.69335 15.83770 35429 ft 489 kts 107°
2026-04-30 12:50 48.66609 15.93219 35434 ft 490 kts 108°
2026-04-30 12:50 48.63870 16.02671 35431 ft 491 kts 108°
2026-04-30 12:51 48.61119 16.12130 35428 ft 492 kts 108°
2026-04-30 12:51 48.58368 16.21553 35430 ft 493 kts 108°
2026-04-30 12:52 48.55590 16.31031 35424 ft 494 kts 108°
2026-04-30 12:52 48.52801 16.40511 35427 ft 495 kts 108°
2026-04-30 12:53 48.49999 16.49995 35426 ft 496 kts 109°
2026-04-30 12:53 48.47187 16.59476 35422 ft 497 kts 109°
2026-04-30 12:54 48.44354 16.68994 35424 ft 497 kts 109°
2026-04-30 12:54 48.41512 16.78501 35423 ft 498 kts 109°
2026-04-30 12:55 48.39139 16.86413 35412 ft 499 kts 109°
2026-04-30 12:55 48.35801 16.97500 35406 ft 500 kts 109°
2026-04-30 12:56 48.32924 17.07014 35401 ft 500 kts 110°
2026-04-30 12:56 48.30522 17.14933 35408 ft 502 kts 110°
2026-04-30 12:57 48.27616 17.24475 35406 ft 503 kts 110°
2026-04-30 12:57 48.24700 17.34015 35409 ft 504 kts 110°
2026-04-30 12:58 48.21769 17.43568 35403 ft 504 kts 110°
2026-04-30 12:58 48.18825 17.53124 35400 ft 505 kts 111°
2026-04-30 12:59 48.15877 17.62660 35392 ft 505 kts 111°
2026-04-30 12:59 48.12927 17.72161 35388 ft 506 kts 111°
2026-04-30 13:00 48.09953 17.81707 35388 ft 506 kts 111°
2026-04-30 13:00 48.06969 17.91250 35389 ft 507 kts 111°
2026-04-30 13:01 48.03968 18.00807 35380 ft 507 kts 111°
2026-04-30 13:01 48.00962 18.10345 35381 ft 508 kts 111°
2026-04-30 13:02 47.97940 18.19899 35394 ft 509 kts 112°
2026-04-30 13:02 47.94911 18.29435 35382 ft 509 kts 112°
2026-04-30 13:03 47.91867 18.38986 35382 ft 510 kts 112°
2026-04-30 13:03 47.88833 18.48467 35382 ft 510 kts 112°
2026-04-30 13:04 47.85769 18.58010 35377 ft 511 kts 112°
2026-04-30 13:04 47.82696 18.67553 35377 ft 511 kts 112°
2026-04-30 13:05 47.79422 18.76957 35375 ft 513 kts 117°
2026-04-30 13:06 47.74066 18.90764 35371 ft 514 kts 117°
2026-04-30 13:06 47.70504 18.99974 35374 ft 514 kts 117°
2026-04-30 13:07 47.66920 19.09180 35358 ft 514 kts 117°
2026-04-30 13:07 47.63332 19.18356 35359 ft 515 kts 117°
2026-04-30 13:08 47.59750 19.27485 35353 ft 515 kts 117°
2026-04-30 13:08 47.56138 19.36660 35357 ft 515 kts 118°
2026-04-30 13:09 47.52514 19.45830 35356 ft 516 kts 118°
2026-04-30 13:09 47.48888 19.54977 35351 ft 516 kts 118°
2026-04-30 13:10 47.45246 19.64132 35352 ft 516 kts 118°
2026-04-30 13:10 47.41597 19.73277 35353 ft 517 kts 118°
2026-04-30 13:11 47.37938 19.82413 35348 ft 517 kts 118°
2026-04-30 13:11 47.34269 19.91542 35350 ft 517 kts 118°
2026-04-30 13:12 47.30615 20.00607 35349 ft 517 kts 118°
2026-04-30 13:12 47.26932 20.09711 35351 ft 517 kts 118°
2026-04-30 13:13 47.21379 20.23382 35360 ft 518 kts 119°
2026-04-30 13:14 47.15815 20.37010 35366 ft 518 kts 119°
2026-04-30 13:14 47.10233 20.50616 35342 ft 519 kts 119°
2026-04-30 13:15 47.04627 20.64212 35335 ft 519 kts 119°
2026-04-30 13:16 47.00895 20.73224 35324 ft 520 kts 119°
2026-04-30 13:16 46.97141 20.82262 35319 ft 520 kts 119°
2026-04-30 13:17 46.91477 20.95840 35306 ft 521 kts 119°
2026-04-30 13:18 46.85791 21.09404 35306 ft 522 kts 120°
2026-04-30 13:18 46.80088 21.22941 35296 ft 522 kts 120°
2026-04-30 13:19 46.76271 21.31965 35292 ft 522 kts 120°
2026-04-30 13:19 46.72444 21.40985 35290 ft 523 kts 120°
2026-04-30 13:20 46.68640 21.49930 35285 ft 523 kts 120°
2026-04-30 13:20 46.65099 21.59150 35282 ft 522 kts 115°
2026-04-30 13:21 46.61729 21.68532 35278 ft 522 kts 116°
2026-04-30 13:22 46.56593 21.82519 35271 ft 523 kts 116°
2026-04-30 13:22 46.51407 21.96480 35266 ft 523 kts 116°
2026-04-30 13:23 46.46194 22.10430 35262 ft 524 kts 117°
2026-04-30 13:24 46.39199 22.29006 35343 ft 526 kts 117°
2026-04-30 13:25 46.35694 22.38265 35537 ft 529 kts 117°
2026-04-30 13:25 46.32141 22.47618 35717 ft 531 kts 117°
2026-04-30 13:26 46.26775 22.61684 36019 ft 534 kts 118°
2026-04-30 13:26 46.23178 22.71072 36228 ft 537 kts 118°
2026-04-30 13:27 46.19542 22.80527 36655 ft 539 kts 118°
2026-04-30 13:28 46.14057 22.94732 37287 ft 541 kts 119°
2026-04-30 13:28 46.08563 23.08883 37270 ft 539 kts 119°
2026-04-30 13:29 46.01207 23.27719 37267 ft 540 kts 119°
2026-04-30 13:31 45.91955 23.51229 37257 ft 541 kts 120°
2026-04-30 13:32 45.82646 23.74682 37263 ft 542 kts 120°
2026-04-30 13:33 45.75136 23.93461 37274 ft 543 kts 121°
2026-04-30 13:34 45.69479 24.07519 37271 ft 544 kts 121°
2026-04-30 13:35 45.61929 24.26174 37274 ft 544 kts 121°
2026-04-30 13:36 45.54303 24.44890 37275 ft 546 kts 122°
2026-04-30 13:36 45.48543 24.58944 37288 ft 548 kts 122°
2026-04-30 13:37 45.42761 24.72981 37290 ft 548 kts 122°
2026-04-30 13:38 45.36951 24.87017 37294 ft 550 kts 122°
2026-04-30 13:39 45.29155 25.05739 37299 ft 550 kts 123°
2026-04-30 13:40 45.23280 25.19766 37302 ft 552 kts 123°
2026-04-30 13:40 45.19344 25.29123 37299 ft 553 kts 123°
2026-04-30 13:41 45.15398 25.38472 37300 ft 553 kts 123°
2026-04-30 13:41 45.11463 25.47767 37300 ft 554 kts 123°
2026-04-30 13:42 45.07489 25.57122 37295 ft 554 kts 123°
2026-04-30 13:42 45.01507 25.71146 37298 ft 555 kts 123°
2026-04-30 13:43 44.97502 25.80497 37302 ft 557 kts 124°
2026-04-30 13:43 44.93480 25.89855 37300 ft 557 kts 124°
2026-04-30 13:44 44.89451 25.99199 37299 ft 558 kts 124°
2026-04-30 13:44 44.85413 26.08533 37298 ft 558 kts 124°
2026-04-30 13:45 44.79359 26.22471 37291 ft 558 kts 124°
2026-04-30 13:46 44.75291 26.31800 37312 ft 558 kts 124°
2026-04-30 13:46 44.71223 26.41098 37309 ft 558 kts 124°